Location: Alladorf
(49.9620°N, 11.3790°E)
Time: 19:39:18
(UTC+00:00)

Cosmos 1633 Rocket - Pass Details

Date: 29 November 2020
Orbit: 607 x 624 km, 82.5° (Epoch: 24 January)

Event Time Altitude Azimuth Distance (km) Brightness Sun altitude
Rises 05:47:25 0° 182° (S) 2,894 6.8 -9.5°
Reaches altitude 10° 05:49:38 10° 180° (S) 1,992 6.0 -9.2°
Maximum altitude 05:54:01 70° 97° (E) 667 3.5 -8.6°
Drops below altitude 10° 05:58:26 10° 14° (NNE) 2,003 5.6 -7.9°
Sets 06:00:41 0° 12° (NNE) 2,912 6.4 -7.6°
